,,Stat6,,Stat2,,Stat8,,Stat9,,Stat10,,Wind1,,Wind1,
time,status,PA1M_AVG,status,PR1M_SUM,status,RH1M_AVG,status,SR1M_AVG,status,TA1M_AVG,status,W1dAve1m,status,W1sAve1m,
2005-07-19, 00:00:00,VALID,919.144,VALID,0,VALID,100,VALID,0,VALID,18.0615,VALID,155,VALID,0,
2005-07-19, 00:01:00,VALID,919.136,VALID,0,VALID,100,VALID,0,VALID,18.0419,VALID,155,VALID,0,
2005-07-19, 00:02:00,VALID,919.128,VALID,0,VALID,100,VALID,0.0169808,VALID,18.0387,VALID,142,VALID,0.0521439,
2005-07-19, 00:03:00,VALID,919.128,VALID,0,VALID,100,VALID,0,VALID,18.0163,VALID,59,VALID,0.656944,
2005-07-19, 00:04:00,VALID,919.121,VALID,0,VALID,100,VALID,0,VALID,18.0098,VALID,59,VALID,0.578472,
2005-07-19, 00:05:00,VALID,919.126,VALID,0,VALID,100,VALID,0,VALID,18.0456,VALID,59,VALID,0.241443,
2005-07-19, 00:06:00,VALID,919.121,VALID,0,VALID,100,VALID,0,VALID,18.0484,VALID,65,VALID,0.13244,
2005-07-19, 00:07:00,VALID,919.102,VALID,0,VALID,100,VALID,0.0169808,VALID,18.023,VALID,169,VALID,0.569097,
2005-07-19, 00:08:00,VALID,919.093,VALID,0,VALID,100,VALID,-0.0339617,VALID,18.0034,VALID,169,VALID,0.718229,
2005-07-19, 00:09:00,VALID,919.066,VALID,0,VALID,100,VALID,-0.0169808,VALID,17.9969,VALID,169,VALID,0.535334,
2005-07-19, 00:10:00,VALID,919.035,VALID,0,VALID,100,VALID,0,VALID,18.0098,VALID,151,VALID,0.675249,
2005-07-19, 00:11:00,VALID,919.011,VALID,0,VALID,100,VALID,0,VALID,18.0324,VALID,128,VALID,0.680176,
2005-07-19, 00:12:00,VALID,919.004,VALID,0,VALID,100,VALID,0,VALID,18.0361,VALID,115,VALID,0.4375,
2005-07-19, 00:13:00,VALID,918.988,VALID,0,VALID,100,VALID,-0.0169808,VALID,18.0228,VALID,115,VALID,0.0581395,
2005-07-19, 00:14:00,VALID,918.987,VALID,0,VALID,100,VALID,0,VALID,18.0126,VALID,115,VALID,0.00852273,
2005-07-19, 00:15:00,VALID,918.974,VALID,0,VALID,100,VALID,0,VALID,18.0354,VALID,115,VALID,0,
2005-07-19, 00:16:00,VALID,918.969,VALID,0,VALID,100,VALID,0,VALID,18.0454,VALID,115,VALID,0.164063,
2005-07-19, 00:17:00,VALID,918.951,VALID,0,VALID,100,VALID,0.0509425,VALID,18.0255,VALID,115,VALID,0.0571057,
2005-07-19, 00:18:00,VALID,918.956,VALID,0,VALID,100,VALID,0,VALID,17.9289,VALID,115,VALID,0,
2005-07-19, 00:19:00,VALID,918.933,VALID,0,VALID,100,VALID,0,VALID,17.9582,VALID,115,VALID,0,
2005-07-19, 00:20:00,VALID,918.905,VALID,0,VALID,100,VALID,0,VALID,17.9457,VALID,115,VALID,0.047619,
2005-07-19, 00:21:00,VALID,918.874,VALID,0,VALID,100,VALID,0,VALID,17.8708,VALID,67,VALID,0.417791,
2005-07-19, 00:22:00,VALID,918.853,VALID,0,VALID,100,VALID,-0.0169808,VALID,17.8515,VALID,15,VALID,0.884115,
2005-07-19, 00:23:00,VALID,918.846,VALID,0,VALID,100,VALID,0,VALID,17.9769,VALID,350,VALID,0.891555,
2005-07-19, 00:24:00,VALID,918.831,VALID,0,VALID,100,VALID,0,VALID,18.0806,VALID,294,VALID,0.678571,
2005-07-19, 00:25:00,VALID,918.838,VALID,0,VALID,100,VALID,0,VALID,18.162,VALID,267,VALID,0.771875,
2005-07-19, 00:26:00,VALID,918.842,VALID,0,VALID,100,VALID,0.0169808,VALID,18.1738,VALID,266,VALID,0.650436,
2005-07-19, 00:27:00,VALID,918.85,VALID,0,VALID,100,VALID,0,VALID,18.2194,VALID,266,VALID,0.434152,
2005-07-19, 00:28:00,VALID,918.864,VALID,0,VALID,100,VALID,0.0509425,VALID,18.2649,VALID,266,VALID,0.27753,
2005-07-19, 00:29:00,VALID,918.856,VALID,0,VALID,100,VALID,0.0679233,VALID,18.2902,VALID,266,VALID,0.0949653,
2005-07-19, 00:30:00,VALID,918.877,VALID,0,VALID,100,VALID,0.101885,VALID,18.3034,VALID,266,VALID,0.26617,
2005-07-19, 00:31:00,VALID,918.881,VALID,0,VALID,100,VALID,0.0339617,VALID,18.2775,VALID,1,VALID,0.450036,
2005-07-19, 00:32:00,VALID,918.878,VALID,0,VALID,100,VALID,0.101885,VALID,18.2487,VALID,5,VALID,0.548177,
2005-07-19, 00:33:00,VALID,918.893,VALID,0,VALID,100,VALID,0.0339617,VALID,18.2326,VALID,5,VALID,0.46503,
2005-07-19, 00:34:00,VALID,918.886,VALID,0,VALID,100,VALID,0.0509425,VALID,18.1966,VALID,5,VALID,0.330983,
2005-07-19, 00:35:00,VALID,918.877,VALID,0,VALID,100,VALID,0.0849042,VALID,18.1606,VALID,5,VALID,0.235618,
2005-07-19, 00:36:00,VALID,918.872,VALID,0,VALID,100,VALID,0.0509425,VALID,18.1938,VALID,293,VALID,0.554315,
2005-07-19, 00:37:00,VALID,918.88,VALID,0,VALID,100,VALID,0.0339617,VALID,18.2517,VALID,248,VALID,0.987424,
2005-07-19, 00:38:00,VALID,918.874,VALID,0,VALID,100,VALID,0.0339617,VALID,18.2769,VALID,242,VALID,0.668501,
2005-07-19, 00:39:00,VALID,918.864,VALID,0,VALID,100,VALID,0.0679233,VALID,18.2838,VALID,242,VALID,0.253906,
2005-07-19, 00:40:00,VALID,918.831,VALID,0,VALID,100,VALID,0.0509425,VALID,18.2545,VALID,247,VALID,0.439862,
2005-07-19, 00:41:00,VALID,918.828,VALID,0,VALID,100,VALID,0.0169808,VALID,18.2515,VALID,326,VALID,0.492746,
2005-07-19, 00:42:00,VALID,918.809,VALID,0,VALID,100,VALID,0.0339617,VALID,18.1802,VALID,355,VALID,0.234747,
2005-07-19, 00:43:00,VALID,918.808,VALID,0,VALID,100,VALID,-0.0849042,VALID,18.1074,VALID,355,VALID,0,
2005-07-19, 00:44:00,VALID,918.795,VALID,0,VALID,100,VALID,-0.0849042,VALID,18.1143,VALID,355,VALID,0.39375,
2005-07-19, 00:45:00,VALID,918.783,VALID,0,VALID,100,VALID,-0.0849042,VALID,18.1823,VALID,355,VALID,0.352865,
2005-07-19, 00:46:00,VALID,918.78,VALID,0,VALID,100,VALID,-0.0509425,VALID,18.234,VALID,342,VALID,0.391135,
2005-07-19, 00:47:00,VALID,918.788,VALID,0,VALID,100,VALID,-0.0679233,VALID,18.2886,VALID,310,VALID,0.498547,
2005-07-19, 00:48:00,VALID,918.8,VALID,0,VALID,100,VALID,-0.0849042,VALID,18.344,VALID,310,VALID,0.241797,
2005-07-19, 00:49:00,VALID,918.81,VALID,0,VALID,100,VALID,-0.0849042,VALID,18.3594,VALID,310,VALID,0.14444,
2005-07-19, 00:50:00,VALID,918.812,VALID,0,VALID,100,VALID,-0.0169808,VALID,18.3887,VALID,310,VALID,0.0141369,
2005-07-19, 00:51:00,VALID,918.819,VALID,0,VALID,100,VALID,-0.0679233,VALID,18.4118,VALID,310,VALID,0,
2005-07-19, 00:52:00,VALID,918.813,VALID,0,VALID,100,VALID,-0.0849042,VALID,18.3949,VALID,310,VALID,0,
2005-07-19, 00:53:00,VALID,918.793,VALID,0,VALID,100,VALID,-0.0679233,VALID,18.3984,VALID,310,VALID,0,
2005-07-19, 00:54:00,VALID,918.77,VALID,0,VALID,99.9964,VALID,-0.0849042,VALID,18.4048,VALID,310,VALID,0,
2005-07-19, 00:55:00,VALID,918.741,VALID,0,VALID,99.8871,VALID,-0.0849042,VALID,18.4212,VALID,310,VALID,0,
2005-07-19, 00:56:00,VALID,918.72,VALID,0,VALID,99.7383,VALID,-0.0849042,VALID,18.4083,VALID,310,VALID,0,
2005-07-19, 00:57:00,VALID,918.699,VALID,0,VALID,99.6137,VALID,-0.101885,VALID,18.4083,VALID,310,VALID,0,
2005-07-19, 00:58:00,VALID,918.678,VALID,0,VALID,99.5692,VALID,0.0169808,VALID,18.3804,VALID,310,VALID,0,
2005-07-19, 00:59:00,VALID,918.665,VALID,0,VALID,99.559,VALID,0.0679233,VALID,18.3707,VALID,310,VALID,0,
2005-07-19, 01:00:00,VALID,918.652,VALID,0,VALID,99.5374,VALID,0,VALID,18.3781,VALID,310,VALID,0,
2005-07-19, 01:01:00,VALID,918.641,VALID,0,VALID,99.3136,VALID,0.0339617,VALID,18.3649,VALID,310,VALID,0,
2005-07-19, 01:02:00,VALID,918.62,VALID,0,VALID,98.8355,VALID,0,VALID,18.3813,VALID,310,VALID,0,
2005-07-19, 01:03:00,VALID,918.609,VALID,0,VALID,98.3154,VALID,0.0339617,VALID,18.4263,VALID,311,VALID,0.0750762,
2005-07-19, 01:04:00,VALID,918.587,VALID,0,VALID,97.5944,VALID,0.0509425,VALID,18.4553,VALID,47,VALID,0.36942,
2005-07-19, 01:05:00,VALID,918.585,VALID,0,VALID,97.3108,VALID,0.0169808,VALID,18.5008,VALID,49,VALID,0.40483,
2005-07-19, 01:06:00,VALID,918.561,VALID,0,VALID,97.1086,VALID,0.0339617,VALID,18.4973,VALID,58,VALID,0.479492,
2005-07-19, 01:07:00,VALID,918.551,VALID,0,VALID,97.176,VALID,0.0339617,VALID,18.4611,VALID,91,VALID,0.545732,
2005-07-19, 01:08:00,VALID,918.537,VALID,0,VALID,97.2142,VALID,0,VALID,18.4394,VALID,107,VALID,0.282315,
2005-07-19, 01:09:00,VALID,918.518,VALID,0,VALID,97.2828,VALID,0.0169808,VALID,18.4164,VALID,107,VALID,0.195685,
2005-07-19, 01:10:00,VALID,918.483,VALID,0,VALID,97.2129,VALID,0.0169808,VALID,18.3972,VALID,107,VALID,0.0710747,
2005-07-19, 01:11:00,VALID,918.481,VALID,0,VALID,96.8899,VALID,0,VALID,18.3391,VALID,106,VALID,0.377544,
2005-07-19, 01:12:00,VALID,918.481,VALID,0,VALID,97.1582,VALID,0,VALID,18.2845,VALID,106,VALID,0.25641,
2005-07-19, 01:13:00,VALID,918.464,VALID,0,VALID,97.5105,VALID,0,VALID,18.2619,VALID,106,VALID,0.122869,
2005-07-19, 01:14:00,VALID,918.464,VALID,0,VALID,97.719,VALID,0.0169808,VALID,18.2586,VALID,106,VALID,0.0988898,
2005-07-19, 01:15:00,VALID,918.464,VALID,0,VALID,97.864,VALID,0,VALID,18.2522,VALID,106,VALID,0,
2005-07-19, 01:16:00,VALID,918.457,VALID,0,VALID,97.8996,VALID,0,VALID,18.2457,VALID,106,VALID,0.255149,
2005-07-19, 01:17:00,VALID,918.449,VALID,0,VALID,97.8385,VALID,0,VALID,18.2328,VALID,71,VALID,0.562314,
2005-07-19, 01:18:00,VALID,918.473,VALID,0,VALID,97.4202,VALID,0,VALID,18.1747,VALID,71,VALID,0.554688,
2005-07-19, 01:19:00,VALID,918.478,VALID,0,VALID,97.4634,VALID,0.0169808,VALID,18.1007,VALID,70,VALID,0.344308,
2005-07-19, 01:20:00,VALID,918.478,VALID,0,VALID,97.7076,VALID,0.0169808,VALID,18.0329,VALID,70,VALID,0.303544,
2005-07-19, 01:21:00,VALID,918.475,VALID,0,VALID,98.2187,VALID,0,VALID,17.9969,VALID,70,VALID,0.0112424,
2005-07-19, 01:22:00,VALID,918.448,VALID,0,VALID,98.6867,VALID,0.0169808,VALID,18.0168,VALID,70,VALID,0.424279,
2005-07-19, 01:23:00,VALID,918.44,VALID,0,VALID,98.7681,VALID,0,VALID,18.0191,VALID,37,VALID,0.536458,
2005-07-19, 01:24:00,VALID,918.435,VALID,0,VALID,98.7401,VALID,0.0339617,VALID,18.0062,VALID,26,VALID,0.131324,
2005-07-19, 01:25:00,VALID,918.406,VALID,0,VALID,99.0961,VALID,0.0679233,VALID,18.0486,VALID,351,VALID,0.320508,
2005-07-19, 01:26:00,VALID,918.389,VALID,0,VALID,99.4764,VALID,0.0339617,VALID,18.1196,VALID,309,VALID,0.122222,
2005-07-19, 01:27:00,VALID,918.365,VALID,0,VALID,99.3746,VALID,0.0169808,VALID,18.1327,VALID,309,VALID,0.0604539,
2005-07-19, 01:28:00,VALID,918.355,VALID,0,VALID,99.105,VALID,-0.0509425,VALID,18.1173,VALID,320,VALID,0.276708,
2005-07-19, 01:29:00,VALID,918.34,VALID,0,VALID,99.0198,VALID,-0.101885,VALID,18.0981,VALID,336,VALID,0.278274,
2005-07-19, 01:30:00,VALID,918.34,VALID,0,VALID,99.2551,VALID,-0.0679233,VALID,18.1046,VALID,328,VALID,0.358467,
2005-07-19, 01:31:00,VALID,918.355,VALID,0,VALID,99.7408,VALID,-0.0679233,VALID,18.1463,VALID,307,VALID,0.451367,
2005-07-19, 01:32:00,VALID,918.37,VALID,0,VALID,99.9814,VALID,-0.0849042,VALID,18.1984,VALID,301,VALID,0.559896,
2005-07-19, 01:33:00,VALID,918.363,VALID,0,VALID,100,VALID,-0.0679233,VALID,18.2144,VALID,292,VALID,0.536585,
2005-07-19, 01:34:00,VALID,918.376,VALID,0,VALID,100,VALID,-0.101885,VALID,18.231,VALID,292,VALID,0.398242,
2005-07-19, 01:35:00,VALID,918.389,VALID,0,VALID,100,VALID,-0.0509425,VALID,18.2434,VALID,292,VALID,0.478338,
2005-07-19, 01:36:00,VALID,918.375,VALID,0,VALID,100,VALID,-0.0679233,VALID,18.2402,VALID,289,VALID,0.294141,
2005-07-19, 01:37:00,VALID,918.394,VALID,0,VALID,100,VALID,-0.0849042,VALID,18.2533,VALID,289,VALID,0.215298,
2005-07-19, 01:38:00,VALID,918.388,VALID,0,VALID,100,VALID,-0.0849042,VALID,18.2402,VALID,289,VALID,0.113186,
2005-07-19, 01:39:00,VALID,918.39,VALID,0,VALID,100,VALID,-0.0509425,VALID,18.2563,VALID,289,VALID,0.17359,
2005-07-19, 01:40:00,VALID,918.404,VALID,0,VALID,100,VALID,-0.0679233,VALID,18.2591,VALID,289,VALID,0.250391,
2005-07-19, 01:41:00,VALID,918.401,VALID,0,VALID,100,VALID,-0.0509425,VALID,18.2796,VALID,289,VALID,0.070503,
2005-07-19, 01:42:00,VALID,918.387,VALID,0,VALID,100,VALID,-0.0849042,VALID,18.2626,VALID,289,VALID,0.255944,
2005-07-19, 01:43:00,VALID,918.389,VALID,0,VALID,100,VALID,0.0339617,VALID,18.2709,VALID,289,VALID,0.192472,
2005-07-19, 01:44:00,VALID,918.385,VALID,0,VALID,100,VALID,0.0169808,VALID,18.2911,VALID,289,VALID,0.257241,
2005-07-19, 01:45:00,VALID,918.368,VALID,0,VALID,100,VALID,0.0339617,VALID,18.2937,VALID,289,VALID,0.381624,
2005-07-19, 01:46:00,VALID,918.355,VALID,0,VALID,100,VALID,0.0169808,VALID,18.3101,VALID,288,VALID,0.447493,
2005-07-19, 01:47:00,VALID,918.335,VALID,0,VALID,100,VALID,0.0169808,VALID,18.2932,VALID,287,VALID,0.138715,
2005-07-19, 01:48:00,VALID,918.327,VALID,0,VALID,100,VALID,0.0169808,VALID,18.3101,VALID,287,VALID,0.041061,
2005-07-19, 01:49:00,VALID,918.328,VALID,0,VALID,100,VALID,0.0169808,VALID,18.3324,VALID,325,VALID,0.217607,
2005-07-19, 01:50:00,VALID,918.321,VALID,0,VALID,100,VALID,0,VALID,18.3649,VALID,339,VALID,0,
2005-07-19, 01:51:00,VALID,918.325,VALID,0,VALID,100,VALID,0.0339617,VALID,18.3553,VALID,339,VALID,0,
2005-07-19, 01:52:00,VALID,918.316,VALID,0,VALID,100,VALID,0.0509425,VALID,18.3716,VALID,268,VALID,0.424538,
2005-07-19, 01:53:00,VALID,918.305,VALID,0,VALID,100,VALID,0.0339617,VALID,18.3679,VALID,265,VALID,0.282158,
2005-07-19, 01:54:00,VALID,918.294,VALID,0,VALID,99.9914,VALID,0.0169808,VALID,18.3808,VALID,265,VALID,0.0965545,
2005-07-19, 01:55:00,VALID,918.267,VALID,0,VALID,99.8807,VALID,0.0339617,VALID,18.3942,VALID,265,VALID,0,
2005-07-19, 01:56:00,VALID,918.256,VALID,0,VALID,99.7154,VALID,0,VALID,18.3935,VALID,265,VALID,0,
2005-07-19, 01:57:00,VALID,918.23,VALID,0,VALID,99.6824,VALID,0.0169808,VALID,18.4159,VALID,265,VALID,0,
2005-07-19, 01:58:00,VALID,918.207,VALID,0,VALID,99.6518,VALID,-0.0679233,VALID,18.4401,VALID,265,VALID,0,
2005-07-19, 01:59:00,VALID,918.18,VALID,0,VALID,99.6111,VALID,-0.0509425,VALID,18.456,VALID,265,VALID,0,
2005-07-19, 02:00:00,VALID,918.155,VALID,0,VALID,99.2843,VALID,-0.0849042,VALID,18.4724,VALID,265,VALID,0.218178,
2005-07-19, 02:01:00,VALID,918.137,VALID,0,VALID,98.7732,VALID,-0.0849042,VALID,18.5084,VALID,265,VALID,0.040516,
2005-07-19, 02:02:00,VALID,918.124,VALID,0,VALID,98.5176,VALID,-0.0849042,VALID,18.5534,VALID,265,VALID,0,
2005-07-19, 02:03:00,VALID,918.133,VALID,0,VALID,98.3624,VALID,-0.0849042,VALID,18.569,VALID,264,VALID,0.183321,
2005-07-19, 02:04:00,VALID,918.141,VALID,0,VALID,97.485,VALID,-0.0849042,VALID,18.5956,VALID,259,VALID,0.758743,
2005-07-19, 02:05:00,VALID,918.152,VALID,0,VALID,97.0387,VALID,-0.0849042,VALID,18.6467,VALID,257,VALID,0.583333,
2005-07-19, 02:06:00,VALID,918.153,VALID,0,VALID,96.7093,VALID,-0.0849042,VALID,18.6887,VALID,257,VALID,0.62221,
2005-07-19, 02:07:00,VALID,918.149,VALID,0,VALID,96.3304,VALID,-0.0849042,VALID,18.7208,VALID,257,VALID,0.525213,
2005-07-19, 02:08:00,VALID,918.152,VALID,0,VALID,95.8892,VALID,-0.0509425,VALID,18.7662,VALID,257,VALID,0.297965,
2005-07-19, 02:09:00,VALID,918.153,VALID,0,VALID,95.3894,VALID,-0.0509425,VALID,18.7953,VALID,257,VALID,0.31468,
2005-07-19, 02:10:00,VALID,918.15,VALID,0,VALID,95.205,VALID,-0.0339617,VALID,18.834,VALID,257,VALID,0.120427,
2005-07-19, 02:11:00,VALID,918.165,VALID,0,VALID,95.0702,VALID,-0.0849042,VALID,18.8626,VALID,257,VALID,0,
2005-07-19, 02:12:00,VALID,918.156,VALID,0,VALID,94.7854,VALID,-0.101885,VALID,18.8919,VALID,257,VALID,0.0142912,
2005-07-19, 02:13:00,VALID,918.159,VALID,0,VALID,94.5858,VALID,-0.0849042,VALID,18.908,VALID,257,VALID,0.0165551,
2005-07-19, 02:14:00,VALID,918.163,VALID,0,VALID,95.2534,VALID,-0.0849042,VALID,18.9242,VALID,257,VALID,0,
2005-07-19, 02:15:00,VALID,918.15,VALID,0,VALID,95.8739,VALID,-0.0679233,VALID,18.9085,VALID,257,VALID,0.0420139,
2005-07-19, 02:16:00,VALID,918.156,VALID,0,VALID,96.0761,VALID,-0.0679233,VALID,18.8601,VALID,257,VALID,0.335352,
2005-07-19, 02:17:00,VALID,918.143,VALID,0,VALID,95.9515,VALID,-0.101885,VALID,18.802,VALID,257,VALID,0.448038,
2005-07-19, 02:18:00,VALID,918.149,VALID,0,VALID,96.0189,VALID,-0.101885,VALID,18.7399,VALID,273,VALID,0.410823,
2005-07-19, 02:19:00,VALID,918.134,VALID,0,VALID,96.2376,VALID,-0.0339617,VALID,18.7079,VALID,352,VALID,0.626776,
2005-07-19, 02:20:00,VALID,918.147,VALID,0,VALID,96.3406,VALID,-0.0509425,VALID,18.6657,VALID,353,VALID,0.661966,
2005-07-19, 02:21:00,VALID,918.145,VALID,0,VALID,96.3139,VALID,-0.101885,VALID,18.6467,VALID,354,VALID,0.708891,
2005-07-19, 02:22:00,VALID,918.157,VALID,0,VALID,96.1956,VALID,-0.101885,VALID,18.6405,VALID,3,VALID,0.795922,
2005-07-19, 02:23:00,VALID,918.14,VALID,0,VALID,96.1193,VALID,-0.0679233,VALID,18.6336,VALID,7,VALID,0.586293,
2005-07-19, 02:24:00,VALID,918.152,VALID,0,VALID,96.01,VALID,-0.0339617,VALID,18.6396,VALID,7,VALID,0.373547,
2005-07-19, 02:25:00,VALID,918.147,VALID,0,VALID,96.0328,VALID,-0.101885,VALID,18.6592,VALID,7,VALID,0.102653,
2005-07-19, 02:26:00,VALID,918.139,VALID,0,VALID,95.9248,VALID,-0.0849042,VALID,18.659,VALID,7,VALID,0.196221,
2005-07-19, 02:27:00,VALID,918.136,VALID,0,VALID,95.8904,VALID,-0.101885,VALID,18.6657,VALID,7,VALID,0.00117188,
2005-07-19, 02:28:00,VALID,918.126,VALID,0,VALID,95.8841,VALID,-0.0509425,VALID,18.682,VALID,7,VALID,0.109947,
2005-07-19, 02:29:00,VALID,918.121,VALID,0,VALID,95.893,VALID,-0.0849042,VALID,18.6982,VALID,7,VALID,0,
2005-07-19, 02:30:00,VALID,918.127,VALID,0,VALID,95.776,VALID,0,VALID,18.7175,VALID,7,VALID,0,
2005-07-19, 02:31:00,VALID,918.123,VALID,0,VALID,95.7366,VALID,-0.0509425,VALID,18.7369,VALID,7,VALID,0,
2005-07-19, 02:32:00,VALID,918.119,VALID,0,VALID,95.7175,VALID,-0.0509425,VALID,18.7464,VALID,7,VALID,0,
2005-07-19, 02:33:00,VALID,918.11,VALID,0,VALID,95.8892,VALID,-0.0169808,VALID,18.759,VALID,7,VALID,0,
2005-07-19, 02:34:00,VALID,918.095,VALID,0,VALID,95.9667,VALID,-0.0339617,VALID,18.7913,VALID,7,VALID,0,
2005-07-19, 02:35:00,VALID,918.094,VALID,0,VALID,95.9082,VALID,-0.0169808,VALID,18.804,VALID,7,VALID,0,
2005-07-19, 02:36:00,VALID,918.082,VALID,0,VALID,95.8256,VALID,0,VALID,18.8243,VALID,7,VALID,0.120617,
2005-07-19, 02:37:00,VALID,918.085,VALID,0,VALID,95.7378,VALID,-0.0509425,VALID,18.8395,VALID,7,VALID,0.251389,
2005-07-19, 02:38:00,VALID,918.091,VALID,0,VALID,95.7124,VALID,-0.0169808,VALID,18.8527,VALID,7,VALID,0.301562,
2005-07-19, 02:39:00,VALID,918.082,VALID,0,VALID,95.734,VALID,-0.0339617,VALID,18.8656,VALID,7,VALID,0.408668,
2005-07-19, 02:40:00,VALID,918.093,VALID,0,VALID,95.6539,VALID,-0.0679233,VALID,18.8695,VALID,7,VALID,0.234189,
2005-07-19, 02:41:00,VALID,918.074,VALID,0,VALID,95.5776,VALID,-0.0509425,VALID,18.8552,VALID,7,VALID,0.346799,
2005-07-19, 02:42:00,VALID,918.095,VALID,0,VALID,95.5382,VALID,-0.0509425,VALID,18.8755,VALID,7,VALID,0.448103,
2005-07-19, 02:43:00,VALID,918.104,VALID,0,VALID,95.4314,VALID,0,VALID,18.8847,VALID,287,VALID,0.44436,
2005-07-19, 02:44:00,VALID,918.09,VALID,0,VALID,95.528,VALID,-0.0169808,VALID,18.9207,VALID,192,VALID,0.0296148,
2005-07-19, 02:45:00,VALID,918.087,VALID,0,VALID,95.4492,VALID,-0.0339617,VALID,18.9394,VALID,192,VALID,0.0133384,
2005-07-19, 02:46:00,VALID,918.058,VALID,0,VALID,95.5318,VALID,-0.0679233,VALID,18.9525,VALID,192,VALID,0,
2005-07-19, 02:47:00,VALID,918.066,VALID,0,VALID,95.8942,VALID,-0.0339617,VALID,18.959,VALID,192,VALID,0.0090843,
2005-07-19, 02:48:00,VALID,918.055,VALID,0,VALID,95.982,VALID,-0.0509425,VALID,18.9567,VALID,192,VALID,0,
2005-07-19, 02:49:00,VALID,918.052,VALID,0,VALID,96.1041,VALID,-0.0169808,VALID,18.8949,VALID,192,VALID,0.289773,
2005-07-19, 02:50:00,VALID,918.066,VALID,0,VALID,96.4677,VALID,-0.0169808,VALID,18.8296,VALID,192,VALID,0.485795,
2005-07-19, 02:51:00,VALID,918.073,VALID,0,VALID,96.6686,VALID,-0.0169808,VALID,18.8045,VALID,191,VALID,0.379383,
2005-07-19, 02:52:00,VALID,918.093,VALID,0,VALID,96.8505,VALID,-0.0169808,VALID,18.7685,VALID,190,VALID,0.22674,
2005-07-19, 02:53:00,VALID,918.111,VALID,0,VALID,96.942,VALID,-0.0169808,VALID,18.7722,VALID,190,VALID,0.0895944,
2005-07-19, 02:54:00,VALID,918.127,VALID,0,VALID,97.0959,VALID,-0.0339617,VALID,18.7687,VALID,190,VALID,0.0465116,
2005-07-19, 02:55:00,VALID,918.132,VALID,0,VALID,97.2282,VALID,0,VALID,18.7849,VALID,190,VALID,0.00590701,
2005-07-19, 02:56:00,VALID,918.122,VALID,0,VALID,97.2549,VALID,-0.0169808,VALID,18.7846,VALID,190,VALID,0.33939,
2005-07-19, 02:57:00,VALID,918.117,VALID,0,VALID,97.0044,VALID,-0.0679233,VALID,18.8077,VALID,190,VALID,0.0220353,
2005-07-19, 02:58:00,VALID,918.123,VALID,0,VALID,96.8212,VALID,-0.0509425,VALID,18.8303,VALID,190,VALID,0,
2005-07-19, 02:59:00,VALID,918.12,VALID,0,VALID,96.764,VALID,-0.0509425,VALID,18.8589,VALID,190,VALID,0,
2005-07-19, 03:00:00,VALID,918.116,VALID,0,VALID,96.8975,VALID,-0.0509425,VALID,18.8718,VALID,190,VALID,0.120833,
2005-07-19, 03:01:00,VALID,918.11,VALID,0,VALID,97.04,VALID,-0.0509425,VALID,18.8753,VALID,187,VALID,0.571456,
2005-07-19, 03:02:00,VALID,918.121,VALID,0,VALID,97.2015,VALID,-0.0339617,VALID,18.8559,VALID,168,VALID,0.629092,
2005-07-19, 03:03:00,VALID,918.112,VALID,0,VALID,97.3655,VALID,-0.0339617,VALID,18.8269,VALID,166,VALID,0.238758,
2005-07-19, 03:04:00,VALID,918.091,VALID,0,VALID,97.5702,VALID,-0.0509425,VALID,18.8109,VALID,148,VALID,0.124455,
2005-07-19, 03:05:00,VALID,918.061,VALID,0,VALID,97.747,VALID,-0.0339617,VALID,18.7883,VALID,48,VALID,0.466518,
2005-07-19, 03:06:00,VALID,918.048,VALID,0,VALID,97.7838,VALID,0,VALID,18.7556,VALID,48,VALID,0.429688,
2005-07-19, 03:07:00,VALID,918.043,VALID,0,VALID,97.8665,VALID,-0.0339617,VALID,18.7201,VALID,48,VALID,0.598357,
2005-07-19, 03:08:00,VALID,918.03,VALID,0,VALID,97.9759,VALID,-0.0169808,VALID,18.6945,VALID,48,VALID,0.334339,
2005-07-19, 03:09:00,VALID,918.031,VALID,0,VALID,98.0585,VALID,-0.0339617,VALID,18.6682,VALID,48,VALID,0.000177557,
2005-07-19, 03:10:00,VALID,918.012,VALID,0,VALID,98.1208,VALID,0.0169808,VALID,18.6652,VALID,48,VALID,0.240234,
2005-07-19, 03:11:00,VALID,918.006,VALID,0,VALID,98.0903,VALID,-0.0339617,VALID,18.691,VALID,48,VALID,0.193359,
2005-07-19, 03:12:00,VALID,918.008,VALID,0,VALID,98.0153,VALID,-0.0169808,VALID,18.7106,VALID,48,VALID,0.0450994,
2005-07-19, 03:13:00,VALID,918,VALID,0,VALID,98.0115,VALID,0,VALID,18.7201,VALID,48,VALID,0.158854,
2005-07-19, 03:14:00,VALID,917.992,VALID,0,VALID,98.1424,VALID,-0.0169808,VALID,18.7263,VALID,48,VALID,0.105824,
2005-07-19, 03:15:00,VALID,917.998,VALID,0,VALID,98.1488,VALID,0,VALID,18.73,VALID,48,VALID,0.287574,
2005-07-19, 03:16:00,VALID,918.009,VALID,0,VALID,98.2416,VALID,-0.0169808,VALID,18.73,VALID,48,VALID,0.0678943,
2005-07-19, 03:17:00,VALID,918.022,VALID,0,VALID,98.2086,VALID,-0.0509425,VALID,18.7168,VALID,48,VALID,0,
2005-07-19, 03:18:00,VALID,918.049,VALID,0,VALID,98.0738,VALID,-0.0169808,VALID,18.7037,VALID,48,VALID,0,
2005-07-19, 03:19:00,VALID,918.059,VALID,0,VALID,97.9797,VALID,-0.0169808,VALID,18.7,VALID,48,VALID,0,
2005-07-19, 03:20:00,VALID,918.08,VALID,0,VALID,97.8118,VALID,-0.0339617,VALID,18.7166,VALID,48,VALID,0,
2005-07-19, 03:21:00,VALID,918.071,VALID,0,VALID,97.63,VALID,-0.0169808,VALID,18.7268,VALID,48,VALID,0,
2005-07-19, 03:22:00,VALID,918.058,VALID,0,VALID,97.6669,VALID,-0.0339617,VALID,18.7588,VALID,48,VALID,0,
2005-07-19, 03:23:00,VALID,918.057,VALID,0,VALID,97.644,VALID,-0.0339617,VALID,18.7812,VALID,48,VALID,0.183222,
2005-07-19, 03:24:00,VALID,918.025,VALID,0,VALID,97.5588,VALID,0,VALID,18.7717,VALID,48,VALID,0.260538,
2005-07-19, 03:25:00,VALID,918,VALID,0,VALID,97.5435,VALID,-0.0339617,VALID,18.762,VALID,48,VALID,0.463356,
2005-07-19, 03:26:00,VALID,917.995,VALID,0,VALID,97.6491,VALID,0,VALID,18.7516,VALID,48,VALID,0.375888,
2005-07-19, 03:27:00,VALID,917.971,VALID,0,VALID,97.8309,VALID,-0.0169808,VALID,18.7586,VALID,48,VALID,0.338299,
2005-07-19, 03:28:00,VALID,917.946,VALID,0,VALID,98.0865,VALID,0,VALID,18.7519,VALID,52,VALID,0.398947,
2005-07-19, 03:29:00,VALID,917.936,VALID,0,VALID,98.2264,VALID,-0.0339617,VALID,18.7586,VALID,53,VALID,0.431463,
2005-07-19, 03:30:00,VALID,917.923,VALID,0,VALID,98.3675,VALID,-0.0849042,VALID,18.7452,VALID,53,VALID,0.518895,
2005-07-19, 03:31:00,VALID,917.923,VALID,0,VALID,98.426,VALID,-0.0339617,VALID,18.7194,VALID,53,VALID,0.453125,
2005-07-19, 03:32:00,VALID,917.931,VALID,0,VALID,98.3344,VALID,-0.0679233,VALID,18.7164,VALID,53,VALID,0.407703,
2005-07-19, 03:33:00,VALID,917.933,VALID,0,VALID,98.3103,VALID,-0.0339617,VALID,18.6617,VALID,53,VALID,0.390625,
2005-07-19, 03:34:00,VALID,917.935,VALID,0,VALID,98.3777,VALID,-0.0339617,VALID,18.629,VALID,53,VALID,0.492773,
2005-07-19, 03:35:00,VALID,917.939,VALID,0,VALID,98.3484,VALID,-0.0509425,VALID,18.5974,VALID,53,VALID,0.423018,
2005-07-19, 03:36:00,VALID,917.919,VALID,0,VALID,98.2582,VALID,-0.0679233,VALID,18.5743,VALID,53,VALID,0.549479,
2005-07-19, 03:37:00,VALID,917.91,VALID,0,VALID,98.3039,VALID,-0.0849042,VALID,18.5916,VALID,53,VALID,0.370046,